• în România
  • Lista ţărilor
  • Pe 7 zile
  • Temperatura apei
  • Hartă satelitară
  • Meteo pe hartă
  • Widget-uri
  • user-avatar
    Intrare

    Meteo pe oră la Chernomorec

    Astăzi, 22 Iunie, Vineri

    Timp Temperatura Precipitaţii Vânt Presiune Umiditate
    00:00 +22°C° 0,1 mm 1 m/s 758 mmHg 87%
    01:00 +22°C° 0,1 mm 1 m/s 758 mmHg 88%
    02:00 +22°C° 0,1 mm 1 m/s 758 mmHg 88%
    03:00 +21°C° 0 mm 1 m/s 758 mmHg 87%
    04:00 +21°C° 0 mm 1 m/s 758 mmHg 86%
    05:00 +20°C° 0 mm 2 m/s 757 mmHg 85%
    06:00 +24°C° 0,1 mm 1 m/s 757 mmHg 76%
    07:00 +26°C° 0,1 mm 1 m/s 757 mmHg 68%
    08:00 +28°C° 0,1 mm 1 m/s 757 mmHg 59%
    09:00 +30°C° 0,1 mm 1 m/s 757 mmHg 52%
    10:00 +32°C° 0,1 mm 1 m/s 757 mmHg 46%
    11:00 +34°C° 0,1 mm 1 m/s 757 mmHg 39%
    12:00 +34°C° 0 mm 1 m/s 756 mmHg 39%
    13:00 +35°C° 0 mm 2 m/s 756 mmHg 39%
    14:00 +35°C° 0 mm 3 m/s 756 mmHg 38%
    15:00 +34°C° 0 mm 3 m/s 756 mmHg 40%
    16:00 +33°C° 0 mm 3 m/s 755 mmHg 42%
    17:00 +31°C° 0 mm 3 m/s 755 mmHg 44%
    18:00 +30°C° 0 mm 3 m/s 755 mmHg 50%
    19:00 +28°C° 0 mm 3 m/s 755 mmHg 55%
    20:00 +27°C° 0 mm 3 m/s 755 mmHg 60%
    21:00 +25°C° 0,3 mm 3 m/s 755 mmHg 67%
    22:00 +24°C° 0,3 mm 3 m/s 756 mmHg 73%
    23:00 +22°C° 0,3 mm 3 m/s 756 mmHg 80%

    Mâine, 23 Iunie, Sâmbătă

    Timp Temperatura Precipitaţii Vânt Presiune Umiditate
    00:00 +21°C° 0,3 mm 4 m/s 756 mmHg 83%
    01:00 +21°C° 0,3 mm 6 m/s 756 mmHg 85%
    02:00 +20°C° 0,3 mm 8 m/s 756 mmHg 87%
    03:00 +18°C° 0,5 mm 8 m/s 757 mmHg 87%
    04:00 +17°C° 0,5 mm 7 m/s 757 mmHg 86%
    05:00 +16°C° 0,5 mm 7 m/s 757 mmHg 86%
    06:00 +17°C° 0,1 mm 7 m/s 757 mmHg 78%
    07:00 +18°C° 0,1 mm 8 m/s 758 mmHg 71%
    08:00 +20°C° 0,1 mm 8 m/s 758 mmHg 63%
    09:00 +20°C° 0,1 mm 8 m/s 759 mmHg 64%
    10:00 +20°C° 0,1 mm 8 m/s 759 mmHg 64%
    11:00 +20°C° 0,1 mm 7 m/s 759 mmHg 65%
    12:00 +21°C° 0 mm 7 m/s 759 mmHg 63%
    13:00 +21°C° 0 mm 7 m/s 759 mmHg 61%
    14:00 +21°C° 0 mm 7 m/s 760 mmHg 59%
    15:00 +22°C° 0 mm 6 m/s 759 mmHg 56%
    16:00 +22°C° 0 mm 6 m/s 759 mmHg 52%
    17:00 +23°C° 0 mm 6 m/s 759 mmHg 49%
    18:00 +22°C° 0 mm 5 m/s 760 mmHg 54%
    19:00 +20°C° 0 mm 4 m/s 760 mmHg 59%
    20:00 +19°C° 0 mm 4 m/s 761 mmHg 64%
    21:00 +18°C° 0 mm 3 m/s 761 mmHg 67%
    22:00 +17°C° 0 mm 3 m/s 761 mmHg 71%
    23:00 +16°C° 0 mm 2 m/s 761 mmHg 74%

    Poimâine, 24 Iunie, Duminică

    Timp Temperatura Precipitaţii Vânt Presiune Umiditate
    00:00 +16°C° 0 mm 2 m/s 761 mmHg 76%
    01:00 +15°C° 0 mm 2 m/s 761 mmHg 77%
    02:00 +14°C° 0 mm 3 m/s 761 mmHg 79%
    03:00 +13°C° 0 mm 3 m/s 761 mmHg 79%
    04:00 +13°C° 0 mm 3 m/s 761 mmHg 79%
    05:00 +13°C° 0 mm 3 m/s 761 mmHg 79%
    06:00 +16°C° 0 mm 3 m/s 762 mmHg 71%
    07:00 +18°C° 0 mm 3 m/s 762 mmHg 62%
    08:00 +20°C° 0 mm 3 m/s 762 mmHg 54%
    09:00 +22°C° 0 mm 3 m/s 762 mmHg 49%
    10:00 +25°C° 0 mm 3 m/s 762 mmHg 45%
    11:00 +27°C° 0 mm 2 m/s 762 mmHg 40%
    12:00 +27°C° 0 mm 3 m/s 762 mmHg 39%
    13:00 +28°C° 0 mm 3 m/s 761 mmHg 38%
    14:00 +28°C° 0 mm 3 m/s 761 mmHg 37%
    15:00 +27°C° 0 mm 4 m/s 761 mmHg 41%
    16:00 +27°C° 0 mm 4 m/s 761 mmHg 44%
    17:00 +26°C° 0 mm 5 m/s 761 mmHg 48%
    18:00 +23°C° 0 mm 4 m/s 761 mmHg 56%
    19:00 +21°C° 0 mm 4 m/s 761 mmHg 65%
    20:00 +19°C° 0 mm 4 m/s 761 mmHg 73%
    21:00 +19°C° 0 mm 4 m/s 761 mmHg 77%
    22:00 +18°C° 0 mm 3 m/s 762 mmHg 80%
    23:00 +17°C° 0 mm 3 m/s 762 mmHg 83%

    25 Iunie, Luni

    Timp Temperatura Precipitaţii Vânt Presiune Umiditate
    00:00 +17°C° 0 mm 3 m/s 762 mmHg 84%
    01:00 +17°C° 0 mm 2 m/s 762 mmHg 84%
    02:00 +16°C° 0 mm 2 m/s 761 mmHg 85%
    03:00 +16°C° 0 mm 2 m/s 761 mmHg 85%
    04:00 +16°C° 0 mm 3 m/s 761 mmHg 86%
    05:00 +16°C° 0 mm 3 m/s 761 mmHg 87%
    06:00 +18°C° 0 mm 3 m/s 761 mmHg 76%
    07:00 +21°C° 0 mm 4 m/s 761 mmHg 66%
    08:00 +23°C° 0 mm 5 m/s 761 mmHg 56%
    09:00 +25°C° 0 mm 5 m/s 761 mmHg 51%
    10:00 +27°C° 0 mm 6 m/s 761 mmHg 46%
    11:00 +28°C° 0 mm 6 m/s 761 mmHg 41%
    12:00 +28°C° 0 mm 6 m/s 761 mmHg 40%
    13:00 +28°C° 0 mm 7 m/s 760 mmHg 39%
    14:00 +29°C° 0 mm 7 m/s 760 mmHg 39%
    15:00 +28°C° 0 mm 7 m/s 760 mmHg 41%
    16:00 +27°C° 0 mm 7 m/s 760 mmHg 43%
    17:00 +27°C° 0 mm 7 m/s 759 mmHg 46%
    18:00 +24°C° 0 mm 6 m/s 760 mmHg 54%
    19:00 +23°C° 0 mm 6 m/s 760 mmHg 62%
    20:00 +21°C° 0 mm 5 m/s 760 mmHg 70%
    21:00 +20°C° 0 mm 5 m/s 760 mmHg 75%
    22:00 +20°C° 0 mm 5 m/s 759 mmHg 80%
    23:00 +19°C° 0 mm 5 m/s 759 mmHg 85%

    26 Iunie, Marţi

    Timp Temperatura Precipitaţii Vânt Presiune Umiditate
    00:00 +19°C° 0 mm 5 m/s 759 mmHg 86%
    01:00 +19°C° 0 mm 5 m/s 759 mmHg 87%
    02:00 +19°C° 0 mm 5 m/s 758 mmHg 88%
    03:00 +20°C° 0 mm 5 m/s 758 mmHg 87%
    04:00 +20°C° 0 mm 6 m/s 758 mmHg 87%
    05:00 +20°C° 0 mm 6 m/s 757 mmHg 86%
    06:00 +21°C° 0,1 mm 6 m/s 757 mmHg 81%
    07:00 +22°C° 0,1 mm 7 m/s 757 mmHg 77%
    08:00 +24°C° 0,1 mm 7 m/s 757 mmHg 73%
    09:00 +26°C° 0,2 mm 7 m/s 757 mmHg 69%
    10:00 +27°C° 0,2 mm 8 m/s 756 mmHg 65%
    11:00 +28°C° 0,2 mm 8 m/s 756 mmHg 61%
    12:00 +27°C° 1,2 mm 8 m/s 756 mmHg 65%
    13:00 +26°C° 1,2 mm 8 m/s 756 mmHg 70%
    14:00 +24°C° 1,2 mm 7 m/s 755 mmHg 75%
    15:00 +24°C° 5,7 mm 7 m/s 755 mmHg 80%
    16:00 +23°C° 5,7 mm 6 m/s 755 mmHg 85%
    17:00 +22°C° 5,7 mm 6 m/s 755 mmHg 90%
    18:00 +22°C° 4,8 mm 5 m/s 755 mmHg 91%
    19:00 +21°C° 4,8 mm 4 m/s 755 mmHg 93%
    20:00 +21°C° 4,8 mm 4 m/s 755 mmHg 95%
    21:00 +20°C° 1,3 mm 3 m/s 755 mmHg 95%
    22:00 +20°C° 1,3 mm 3 m/s 755 mmHg 96%
    23:00 +20°C° 1,3 mm 3 m/s 754 mmHg 96%

    27 Iunie, Miercuri

    Timp Temperatura Precipitaţii Vânt Presiune Umiditate
    00:00 +19°C° 0,2 mm 3 m/s 754 mmHg 96%
    01:00 +19°C° 0,2 mm 2 m/s 754 mmHg 97%
    02:00 +19°C° 0,2 mm 2 m/s 754 mmHg 97%
    03:00 +19°C° 0,1 mm 2 m/s 754 mmHg 97%
    04:00 +19°C° 0,1 mm 2 m/s 754 mmHg 97%
    05:00 +19°C° 0,1 mm 3 m/s 754 mmHg 97%
    06:00 +20°C° 0 mm 2 m/s 754 mmHg 93%
    07:00 +21°C° 0 mm 2 m/s 754 mmHg 89%
    08:00 +23°C° 0 mm 2 m/s 754 mmHg 85%
    09:00 +25°C° 0 mm 2 m/s 754 mmHg 78%
    10:00 +26°C° 0 mm 2 m/s 753 mmHg 70%
    11:00 +28°C° 0 mm 2 m/s 753 mmHg 62%
    12:00 +28°C° 0,1 mm 2 m/s 753 mmHg 62%
    13:00 +29°C° 0,1 mm 2 m/s 753 mmHg 61%
    14:00 +29°C° 0,1 mm 2 m/s 753 mmHg 60%
    15:00 +29°C° 0,3 mm 2 m/s 752 mmHg 63%
    16:00 +28°C° 0,3 mm 3 m/s 752 mmHg 66%
    17:00 +28°C° 0,3 mm 3 m/s 752 mmHg 68%
    18:00 +26°C° 0,6 mm 3 m/s 753 mmHg 75%
    19:00 +24°C° 0,6 mm 3 m/s 753 mmHg 81%
    20:00 +22°C° 0,6 mm 3 m/s 753 mmHg 88%
    21:00 +21°C° 0,4 mm 3 m/s 753 mmHg 89%
    22:00 +20°C° 0,4 mm 3 m/s 754 mmHg 91%
    23:00 +19°C° 0,4 mm 3 m/s 754 mmHg 93%
    Arată mai mult